| time (UTC) | temp F | wind direction | speed MPH | gust MPH | rain 1hr in | rain 24hr in | rain mn in | humidity % | barometer mb |
| 20260510113046 | 0 | 3 | 4.0 | 4.0 | 0.00 | 0.00 | 0.00 | 1012.1 | |
| 20260510112808 | 0 | 0.0 | 0.0 | 0.00 | 0.00 | 0.00 | |||
| 20260510112306 | 72 | 67 | 3.0 | 4.0 | 0.00 | 0.00 | 0.00 | 47 | 1012.3 |
| 20260510111803 | 72 | 67 | 3.0 | 5.0 | 0.00 | 0.00 | 0.00 | 47 | 1012.3 |
| 20260510111302 | 72 | 32 | 2.0 | 6.0 | 0.00 | 0.00 | 0.00 | 49 | 1012.4 |
| 20260510110828 | 70 | 294 | 1.0 | 5.0 | 0.00 | 0.00 | 0.00 | 52 | 1012.6 |
| 20260510110820 | 71 | 321 | 2.0 | 6.0 | 0.00 | 0.00 | 0.00 | 49 | 1012.5 |
| 20260510105804 | 70 | 279 | 4.0 | 5.0 | 0.00 | 0.00 | 0.00 | 48 | 1012.6 |
| 20260510105540 | 70 | 317 | 2.0 | 4.0 | 0.00 | 0.00 | 0.00 | 48 | 1012.7 |
| 20260510104804 | 70 | 84 | 2.0 | 5.0 | 0.00 | 0.00 | 0.00 | 51 | 1012.8 |
| 20260510104303 | 69 | 57 | 3.0 | 6.0 | 0.00 | 0.00 | 0.00 | 51 | 1012.8 |
| 20260510103804 | 69 | 125 | 3.0 | 10.0 | 0.00 | 0.00 | 0.00 | 51 | 1012.8 |
| 20260510103302 | 69 | 91 | 3.0 | 10.0 | 0.00 | 0.00 | 0.00 | 51 | 1012.8 |
| 20260510102804 | 69 | 56 | 6.0 | 9.0 | 0.00 | 0.00 | 0.00 | 51 | 1012.8 |
| 20260510102541 | 68 | 135 | 2.0 | 7.0 | 0.00 | 0.00 | 0.00 | 57 | 1012.9 |
| 20260510101801 | 67 | 133 | 2.0 | 5.0 | 0.00 | 0.00 | 0.00 | 51 | 1013.1 |
| 20260510101301 | 67 | 162 | 3.0 | 7.0 | 0.00 | 0.00 | 0.00 | 53 | 1013.1 |
| 20260510101044 | 67 | 166 | 3.0 | 7.0 | 0.00 | 0.00 | 0.00 | 53 | 1013.2 |
| 20260510100546 | 67 | 120 | 2.0 | 5.0 | 0.00 | 0.00 | 0.00 | 52 | 1013.3 |
| 20260510095802 | 67 | 156 | 4.0 | 5.0 | 0.00 | 0.00 | 0.00 | 55 | 1013.3 |
| 20260510095259 | 67 | 201 | 1.0 | 7.0 | 0.00 | 0.00 | 0.00 | 55 | 1013.2 |
| 20260510094800 | 66 | 217 | 2.0 | 7.0 | 0.00 | 0.00 | 0.00 | 55 | 1013.4 |
| 20260510094300 | 65 | 119 | 3.0 | 11.0 | 0.00 | 0.00 | 0.00 | 55 | 1013.4 |
| 20260510093802 | 65 | 166 | 7.0 | 11.0 | 0.00 | 0.00 | 0.00 | 56 | 1013.4 |
| 20260510093300 | 65 | 206 | 6.0 | 10.0 | 0.00 | 0.00 | 0.00 | 56 | 1013.4 |
| 20260510092801 | 65 | 200 | 4.0 | 10.0 | 0.00 | 0.00 | 0.00 | 53 | 1013.6 |
| 20260510092340 | 65 | 191 | 7.0 | 11.0 | 0.00 | 0.00 | 0.00 | 53 | 1013.7 |
| 20260510092325 | 65 | 197 | 5.0 | 11.0 | 0.00 | 0.00 | 0.00 | 54 | 1013.7 |
| 20260510091300 | 65 | 135 | 4.0 | 7.0 | 0.00 | 0.00 | 0.00 | 55 | 1013.8 |
| 20260510090800 | 64 | 106 | 4.0 | 10.0 | 0.00 | 0.00 | 0.00 | 56 | 1014.0 |
| 20260510090300 | 64 | 158 | 6.0 | 10.0 | 0.00 | 0.00 | 0.00 | 55 | 1014.1 |
| 20260510090049 | 64 | 177 | 5.0 | 9.0 | 0.00 | 0.00 | 0.00 | 55 | 1014.1 |
| 20260510085547 | 64 | 193 | 5.0 | 9.0 | 0.00 | 0.00 | 0.00 | 57 | 1014.2 |
| 20260510084801 | 64 | 155 | 3.0 | 9.0 | 0.00 | 0.00 | 0.00 | 56 | 1014.2 |
| 20260510084301 | 63 | 145 | 5.0 | 9.0 | 0.00 | 0.00 | 0.00 | 57 | 1014.3 |
| 20260510083800 | 63 | 120 | 4.0 | 7.0 | 0.00 | 0.00 | 0.00 | 60 | 1014.3 |
| 20260510083257 | 62 | 142 | 5.0 | 7.0 | 0.00 | 0.00 | 0.00 | 59 | 1014.3 |
| 20260510083045 | 62 | 141 | 6.0 | 6.0 | 0.00 | 0.00 | 0.00 | 57 | 1014.4 |
| 20260510082300 | 63 | 193 | 5.0 | 6.0 | 0.00 | 0.00 | 0.00 | 59 | 1014.4 |
| 20260510081759 | 62 | 135 | 5.0 | 9.0 | 0.00 | 0.00 | 0.00 | 62 | 1014.5 |
| 20260510081300 | 62 | 184 | 6.0 | 9.0 | 0.00 | 0.00 | 0.00 | 62 | 1014.5 |
| 20260510081043 | 61 | 135 | 3.0 | 9.0 | 0.00 | 0.00 | 0.00 | 63 | 1014.5 |
| 20260510080257 | 61 | 156 | 6.0 | 9.0 | 0.00 | 0.00 | 0.00 | 65 | 1014.7 |
| 20260510075800 | 60 | 215 | 5.0 | 9.0 | 0.00 | 0.00 | 0.00 | 65 | 1014.6 |
| 20260510075257 | 60 | 135 | 6.0 | 10.0 | 0.00 | 0.00 | 0.00 | 67 | 1014.8 |
| 20260510074758 | 60 | 135 | 6.0 | 10.0 | 0.00 | 0.00 | 0.00 | 66 | 1014.7 |
| 20260510074258 | 59 | 148 | 7.0 | 7.0 | 0.00 | 0.00 | 0.00 | 68 | 1014.7 |
| 20260510073759 | 59 | 176 | 4.0 | 11.0 | 0.00 | 0.00 | 0.00 | 68 | 1014.7 |
| 20260510073258 | 58 | 189 | 4.0 | 11.0 | 0.00 | 0.00 | 0.00 | 65 | 1014.8 |
| 20260510072801 | 58 | 128 | 4.0 | 10.0 | 0.00 | 0.00 | 0.00 | 65 | 1014.9 |
| 20260510072257 | 58 | 112 | 4.0 | 7.0 | 0.00 | 0.00 | 0.00 | 68 | 1014.8 |
| 20260510072107 | 57 | 141 | 2.0 | 10.0 | 0.00 | 0.00 | 0.00 | 66 | 1014.8 |
| 20260510071259 | 57 | 220 | 6.0 | 11.0 | 0.00 | 0.00 | 0.00 | 66 | 1014.9 |
| 20260510070758 | 57 | 167 | 6.0 | 11.0 | 0.00 | 0.00 | 0.00 | 67 | 1015.0 |
| 20260510070256 | 57 | 135 | 5.0 | 11.0 | 0.00 | 0.00 | 0.00 | 68 | 1015.2 |
| 20260510065801 | 56 | 135 | 6.0 | 11.0 | 0.00 | 0.00 | 0.00 | 68 | 1015.3 |
| 20260510065541 | 56 | 135 | 3.0 | 7.0 | 0.00 | 0.00 | 0.00 | 69 | 1015.1 |
| 20260510064758 | 56 | 135 | 6.0 | 7.0 | 0.00 | 0.00 | 0.00 | 71 | 1015.2 |
| 20260510064257 | 55 | 123 | 4.0 | 10.0 | 0.00 | 0.00 | 0.00 | 72 | 1015.2 |
| 20260510063829 | 54 | 135 | 5.0 | 7.0 | 0.00 | 0.00 | 0.00 | 76 | 1015.2 |
| 20260510063820 | 54 | 135 | 6.0 | 10.0 | 0.00 | 0.00 | 0.00 | 74 | 1015.3 |
| 20260510062759 | 53 | 135 | 5.0 | 7.0 | 0.00 | 0.00 | 0.00 | 77 | 1015.3 |
| 20260510062255 | 52 | 156 | 4.0 | 6.0 | 0.00 | 0.00 | 0.00 | 78 | 1015.3 |
| 20260510061757 | 52 | 151 | 5.0 | 6.0 | 0.00 | 0.00 | 0.00 | 78 | 1015.5 |
| 20260510061257 | 52 | 135 | 1.0 | 6.0 | 0.00 | 0.00 | 0.00 | 81 | 1015.5 |
| 20260510060756 | 51 | 122 | 2.0 | 7.0 | 0.00 | 0.00 | 0.00 | 81 | 1015.6 |
| 20260510060540 | 50 | 135 | 4.0 | 7.0 | 0.00 | 0.00 | 0.00 | 83 | 1015.4 |
| 20260510055757 | 50 | 126 | 5.0 | 7.0 | 0.00 | 0.00 | 0.00 | 84 | 1015.4 |
| 20260510055255 | 49 | 151 | 3.0 | 6.0 | 0.00 | 0.00 | 0.00 | 85 | 1015.4 |
| 20260510054757 | 48 | 158 | 3.0 | 5.0 | 0.00 | 0.00 | 0.00 | 86 | 1015.6 |
| 20260510054257 | 48 | 162 | 3.0 | 5.0 | 0.00 | 0.00 | 0.00 | 87 | 1015.7 |
| 20260510053757 | 47 | 135 | 2.0 | 6.0 | 0.00 | 0.00 | 0.00 | 88 | 1015.8 |
| 20260510053537 | 47 | 151 | 3.0 | 6.0 | 0.00 | 0.00 | 0.00 | 88 | 1015.9 |
| 20260510052758 | 47 | 133 | 3.0 | 5.0 | 0.00 | 0.00 | 0.00 | 89 | 1015.8 |
| 20260510052538 | 46 | 95 | 2.0 | 4.0 | 0.00 | 0.00 | 0.00 | 89 | 1015.7 |
| 20260510052041 | 45 | 105 | 0.0 | 3.0 | 0.00 | 0.00 | 0.00 | 89 | 1015.7 |
| 20260510051543 | 44 | 104 | 2.0 | 3.0 | 0.00 | 0.00 | 0.00 | 89 | 1015.8 |
| 20260510050755 | 44 | 106 | 1.0 | 3.0 | 0.00 | 0.00 | 0.00 | 89 | 1015.8 |
| 20260510050255 | 43 | 115 | 1.0 | 2.0 | 0.00 | 0.00 | 0.00 | 89 | 1015.8 |
| 20260510045756 | 43 | 115 | 0.0 | 3.0 | 0.00 | 0.00 | 0.00 | 89 | 1015.7 |
| 20260510045253 | 42 | 116 | 0.0 | 3.0 | 0.00 | 0.00 | 0.00 | 89 | 1015.6 |
| 20260510044829 | 42 | 119 | 0.0 | 4.0 | 0.00 | 0.00 | 0.00 | 89 | 1015.8 |
| 20260510044817 | 42 | 116 | 1.0 | 2.0 | 0.00 | 0.00 | 0.00 | 89 | 1015.7 |
| 20260510043754 | 42 | 119 | 1.0 | 4.0 | 0.00 | 0.00 | 0.00 | 89 | 1015.6 |
| 20260510043253 | 42 | 118 | 2.0 | 3.0 | 0.00 | 0.00 | 0.00 | 88 | 1015.7 |
| 20260510042757 | 41 | 118 | 1.0 | 3.0 | 0.00 | 0.00 | 0.00 | 88 | 1015.7 |
| 20260510042253 | 41 | 118 | 0.0 | 3.0 | 0.00 | 0.00 | 0.00 | 88 | 1015.7 |
| 20260510041755 | 41 | 118 | 1.0 | 3.0 | 0.00 | 0.00 | 0.00 | 88 | 1015.5 |
| 20260510041256 | 40 | 118 | 1.0 | 3.0 | 0.00 | 0.00 | 0.00 | 88 | 1015.5 |
| 20260510040754 | 40 | 118 | 1.0 | 3.0 | 0.00 | 0.00 | 0.00 | 88 | 1015.6 |
| 20260510040252 | 40 | 118 | 1.0 | 3.0 | 0.00 | 0.00 | 0.00 | 88 | 1015.6 |
| 20260510035755 | 40 | 118 | 2.0 | 3.0 | 0.00 | 0.00 | 0.00 | 88 | 1015.7 |
| 20260510035541 | 40 | 115 | 2.0 | 3.0 | 0.00 | 0.00 | 0.00 | 88 | 1015.7 |
| 20260510034753 | 40 | 115 | 1.0 | 3.0 | 0.00 | 0.00 | 0.00 | 88 | 1015.8 |
| 20260510034253 | 40 | 115 | 2.0 | 3.0 | 0.00 | 0.00 | 0.00 | 88 | 1015.7 |
| 20260510033753 | 40 | 115 | 1.0 | 3.0 | 0.00 | 0.00 | 0.00 | 87 | 1015.8 |
| 20260510033252 | 40 | 115 | 2.0 | 3.0 | 0.00 | 0.00 | 0.00 | 87 | 1015.8 |
| 20260510032755 | 39 | 115 | 2.0 | 4.0 | 0.00 | 0.00 | 0.00 | 87 | 1015.8 |
| 20260510032252 | 39 | 113 | 3.0 | 4.0 | 0.00 | 0.00 | 0.00 | 87 | 1015.8 |
| 20260510031753 | 39 | 113 | 0.0 | 4.0 | 0.00 | 0.00 | 0.00 | 87 | 1016.0 |
| 20260510031253 | 39 | 113 | 3.0 | 4.0 | 0.00 | 0.00 | 0.00 | 87 | 1016.1 |
| 20260510030752 | 39 | 89 | 1.0 | 2.0 | 0.00 | 0.00 | 0.00 | 86 | 1015.9 |
| 20260510030537 | 39 | 89 | 0.0 | 1.0 | 0.00 | 0.00 | 0.00 | 86 | 1015.8 |
| 20260510025754 | 39 | 89 | 0.0 | 0.0 | 0.00 | 0.00 | 0.00 | 87 | 1015.9 |
| 20260510025250 | 39 | 88 | 0.0 | 0.0 | 0.00 | 0.00 | 0.00 | 86 | 1015.9 |
| 20260510024752 | 39 | 89 | 0.0 | 0.0 | 0.00 | 0.00 | 0.00 | 87 | 1016.0 |
| 20260510024252 | 40 | 89 | 0.0 | 0.0 | 0.00 | 0.00 | 0.00 | 87 | 1016.1 |
| 20260510023752 | 40 | 89 | 0.0 | 0.0 | 0.00 | 0.00 | 0.00 | 87 | 1016.1 |
| 20260510023250 | 40 | 89 | 0.0 | 2.0 | 0.00 | 0.00 | 0.00 | 87 | 1016.2 |
| 20260510022753 | 40 | 89 | 0.0 | 2.0 | 0.00 | 0.00 | 0.00 | 86 | 1016.3 |
| 20260510022250 | 40 | 89 | 0.0 | 2.0 | 0.00 | 0.00 | 0.00 | 86 | 1016.4 |
| 20260510022036 | 40 | 89 | 1.0 | 2.0 | 0.00 | 0.00 | 0.00 | 86 | 1016.4 |
| 20260510021252 | 40 | 89 | 1.0 | 2.0 | 0.00 | 0.00 | 0.00 | 86 | 1016.5 |
| 20260510020752 | 40 | 89 | 1.0 | 2.0 | 0.00 | 0.00 | 0.00 | 86 | 1016.5 |
| 20260510020250 | 40 | 89 | 0.0 | 0.0 | 0.00 | 0.00 | 0.00 | 86 | 1016.6 |
| 20260510015753 | 40 | 89 | 0.0 | 0.0 | 0.00 | 0.00 | 0.00 | 86 | 1016.7 |
| 20260510015250 | 40 | 89 | 0.0 | 1.0 | 0.00 | 0.00 | 0.00 | 86 | 1016.8 |
| 20260510014750 | 40 | 89 | 0.0 | 2.0 | 0.00 | 0.00 | 0.00 | 86 | 1016.8 |
| 20260510014253 | 40 | 89 | 0.0 | 2.0 | 0.00 | 0.00 | 0.00 | 86 | 1016.9 |
| 20260510013752 | 40 | 89 | 2.0 | 2.0 | 0.00 | 0.00 | 0.00 | 86 | 1016.9 |
| 20260510013250 | 40 | 89 | 1.0 | 2.0 | 0.00 | 0.00 | 0.00 | 86 | 1016.9 |
| 20260510012754 | 40 | 89 | 1.0 | 2.0 | 0.00 | 0.00 | 0.00 | 86 | 1017.0 |
| 20260510012249 | 40 | 89 | 0.0 | 1.0 | 0.00 | 0.00 | 0.00 | 86 | 1016.9 |
| 20260510011752 | 41 | 89 | 0.0 | 2.0 | 0.00 | 0.00 | 0.00 | 86 | 1016.9 |
| 20260510011251 | 41 | 89 | 0.0 | 2.0 | 0.00 | 0.00 | 0.00 | 86 | 1017.0 |
| 20260510010750 | 41 | 89 | 1.0 | 1.0 | 0.00 | 0.00 | 0.00 | 86 | 1017.0 |
| 20260510010249 | 41 | 89 | 0.0 | 2.0 | 0.00 | 0.00 | 0.00 | 86 | 1017.1 |
| 20260510005751 | 41 | 89 | 1.0 | 2.0 | 0.00 | 0.00 | 0.00 | 86 | 1017.1 |
| 20260510005535 | 41 | 89 | 1.0 | 2.0 | 0.00 | 0.00 | 0.00 | 85 | 1017.0 |
| 20260510004749 | 41 | 89 | 0.0 | 0.0 | 0.00 | 0.00 | 0.00 | 85 | 1017.1 |
| 20260510004250 | 41 | 89 | 0.0 | 0.0 | 0.00 | 0.00 | 0.00 | 85 | 1017.1 |
| 20260510003749 | 42 | 89 | 0.0 | 0.0 | 0.00 | 0.00 | 0.00 | 85 | 1017.1 |
| 20260510003529 | 42 | 89 | 0.0 | 1.0 | 0.00 | 0.00 | 0.00 | 86 | 1017.2 |
| 20260510002751 | 42 | 89 | 0.0 | 2.0 | 0.00 | 0.00 | 0.00 | 86 | 1017.2 |
| 20260510002248 | 42 | 89 | 2.0 | 2.0 | 0.00 | 0.00 | 0.00 | 86 | 1017.2 |
| 20260510001748 | 42 | 89 | 0.0 | 2.0 | 0.00 | 0.00 | 0.00 | 85 | 1017.2 |
| 20260510001250 | 42 | 89 | 0.0 | 0.0 | 0.00 | 0.00 | 0.00 | 85 | 1017.5 |
| 20260510000749 | 42 | 89 | 0.0 | 1.0 | 0.00 | 0.00 | 0.00 | 85 | 1017.5 |
| 20260510000248 | 42 | 89 | 0.0 | 1.0 | 0.00 | 0.00 | 0.00 | 86 | 1017.5 |
| 20260509235750 | 42 | 89 | 0.0 | 2.0 | 0.00 | 0.00 | 0.00 | 85 | 1017.5 |
| 20260509235247 | 42 | 89 | 1.0 | 2.0 | 0.00 | 0.00 | 0.00 | 85 | 1017.5 |
| 20260509235038 | 42 | 89 | 0.0 | 1.0 | 0.00 | 0.00 | 0.00 | 85 | 1017.6 |
| 20260509234249 | 42 | 89 | 0.0 | 1.0 | 0.00 | 0.00 | 0.00 | 85 | 1017.7 |
| 20260509233748 | 42 | 89 | 1.0 | 1.0 | 0.00 | 0.00 | 0.00 | 85 | 1017.8 |
| 20260509233247 | 42 | 89 | 0.0 | 0.0 | 0.00 | 0.00 | 0.00 | 85 | 1017.8 |
| 20260509232752 | 42 | 89 | 0.0 | 0.0 | 0.00 | 0.00 | 0.00 | 85 | 1017.9 |
| 20260509232537 | 43 | 89 | 0.0 | 0.0 | 0.00 | 0.00 | 0.00 | 85 | 1017.9 |
| 20260509231749 | 43 | 89 | 0.0 | 0.0 | 0.00 | 0.00 | 0.00 | 84 | 1017.9 |
| 20260509231528 | 43 | 89 | 0.0 | 0.0 | 0.00 | 0.00 | 0.00 | 84 | 1018.0 |
| 20260509231035 | 43 | 89 | 0.0 | 0.0 | 0.00 | 0.00 | 0.00 | 84 | 1018.0 |
| 20260509230248 | 43 | 89 | 0.0 | 0.0 | 0.00 | 0.00 | 0.00 | 84 | 1018.0 |
| 20260509230030 | 43 | 89 | 0.0 | 2.0 | 0.00 | 0.00 | 0.00 | 84 | 1018.0 |
| 20260509225246 | 43 | 89 | 1.0 | 2.0 | 0.00 | 0.00 | 0.00 | 84 | 1018.0 |
| 20260509224747 | 43 | 89 | 0.0 | 0.0 | 0.00 | 0.00 | 0.00 | 84 | 1018.0 |
| 20260509224247 | 44 | 89 | 0.0 | 0.0 | 0.00 | 0.00 | 0.00 | 84 | 1018.0 |
| 20260509223747 | 44 | 89 | 0.0 | 0.0 | 0.00 | 0.00 | 0.00 | 84 | 1018.0 |
| 20260509223245 | 44 | 89 | 0.0 | 0.0 | 0.00 | 0.00 | 0.00 | 84 | 1018.1 |
| 20260509223037 | 44 | 89 | 0.0 | 0.0 | 0.00 | 0.00 | 0.00 | 84 | 1018.1 |
| 20260509222245 | 44 | 89 | 0.0 | 0.0 | 0.00 | 0.00 | 0.00 | 84 | 1018.1 |
| 20260509221747 | 44 | 89 | 0.0 | 0.0 | 0.00 | 0.00 | 0.00 | 83 | 1018.1 |
| 20260509221534 | 44 | 89 | 0.0 | 1.0 | 0.00 | 0.00 | 0.00 | 83 | 1018.1 |
| 20260509220747 | 44 | 89 | 0.0 | 1.0 | 0.00 | 0.00 | 0.00 | 83 | 1018.1 |
| 20260509220244 | 44 | 89 | 1.0 | 1.0 | 0.00 | 0.00 | 0.00 | 83 | 1018.1 |
| 20260509215748 | 45 | 89 | 0.0 | 0.0 | 0.00 | 0.00 | 0.00 | 83 | 1018.2 |
| 20260509215244 | 45 | 89 | 0.0 | 0.0 | 0.00 | 0.00 | 0.00 | 83 | 1018.2 |
| 20260509214749 | 45 | 89 | 0.0 | 0.0 | 0.00 | 0.00 | 0.00 | 83 | 1018.2 |
| 20260509214249 | 45 | 89 | 0.0 | 0.0 | 0.00 | 0.00 | 0.00 | 83 | 1018.3 |
| 20260509213748 | 45 | 89 | 0.0 | 0.0 | 0.00 | 0.00 | 0.00 | 83 | 1018.2 |
| 20260509213247 | 45 | 89 | 0.0 | 0.0 | 0.00 | 0.00 | 0.00 | 83 | 1018.3 |
| 20260509212835 | 46 | 89 | 0.0 | 0.0 | 0.00 | 0.00 | 0.00 | 82 | 1018.4 |
| 20260509212820 | 46 | 89 | 0.0 | 0.0 | 0.00 | 0.00 | 0.00 | 82 | 1018.3 |
| 20260509211747 | 46 | 89 | 0.0 | 0.0 | 0.00 | 0.00 | 0.00 | 82 | 1018.4 |
| 20260509211404 | 46 | 89 | 0.0 | 0.0 | 0.00 | 0.00 | 0.00 | 81 | 1018.4 |
| 20260509211356 | 46 | 89 | 0.0 | 0.0 | 0.00 | 0.00 | 0.00 | 82 | 1018.4 |
| 20260509211330 | 46 | 89 | 0.0 | 0.0 | 0.00 | 0.00 | 0.00 | 81 | 1018.5 |
| 20260509210038 | 46 | 89 | 0.0 | 0.0 | 0.00 | 0.00 | 0.00 | 81 | 1018.5 |
| 20260509205244 | 47 | 89 | 0.0 | 0.0 | 0.00 | 0.00 | 0.00 | 81 | 1018.5 |
| 20260509204744 | 47 | 89 | 0.0 | 0.0 | 0.00 | 0.00 | 0.00 | 80 | 1018.6 |
| 20260509204244 | 47 | 89 | 0.0 | 0.0 | 0.00 | 0.00 | 0.00 | 80 | 1018.5 |
| 20260509203746 | 47 | 89 | 0.0 | 0.0 | 0.00 | 0.00 | 0.00 | 80 | 1018.6 |
| 20260509203243 | 47 | 89 | 0.0 | 0.0 | 0.00 | 0.00 | 0.00 | 79 | 1018.6 |
| 20260509202746 | 47 | 89 | 0.0 | 0.0 | 0.00 | 0.00 | 0.00 | 79 | 1018.5 |
| 20260509202243 | 48 | 89 | 0.0 | 0.0 | 0.00 | 0.00 | 0.00 | 79 | 1018.5 |
| 20260509201744 | 48 | 89 | 0.0 | 0.0 | 0.00 | 0.00 | 0.00 | 78 | 1018.4 |
| 20260509201246 | 48 | 89 | 0.0 | 0.0 | 0.00 | 0.00 | 0.00 | 78 | 1018.5 |
| 20260509200745 | 49 | 89 | 0.0 | 0.0 | 0.00 | 0.00 | 0.00 | 78 | 1018.5 |
| 20260509200626 | 49 | 89 | 0.0 | 0.0 | 0.00 | 0.00 | 0.00 | 76 | 1018.3 |
| 20260509200620 | 49 | 89 | 0.0 | 0.0 | 0.00 | 0.00 | 0.00 | 77 | 1018.4 |
| 20260509195243 | 49 | 89 | 0.0 | 0.0 | 0.00 | 0.00 | 0.00 | 76 | 1018.4 |
| 20260509194744 | 50 | 89 | 0.0 | 0.0 | 0.00 | 0.00 | 0.00 | 75 | 1018.4 |
| 20260509194244 | 50 | 89 | 0.0 | 0.0 | 0.00 | 0.00 | 0.00 | 75 | 1018.4 |
| 20260509194028 | 51 | 89 | 0.0 | 2.0 | 0.00 | 0.00 | 0.00 | 75 | 1018.4 |
| 20260509193242 | 51 | 89 | 0.0 | 2.0 | 0.00 | 0.00 | 0.00 | 75 | 1018.4 |
| 20260509192745 | 51 | 89 | 0.0 | 1.0 | 0.00 | 0.00 | 0.00 | 75 | 1018.4 |
| 20260509192243 | 52 | 89 | 0.0 | 2.0 | 0.00 | 0.00 | 0.00 | 75 | 1018.3 |
| 20260509191741 | 52 | 89 | 1.0 | 2.0 | 0.00 | 0.00 | 0.00 | 75 | 1018.3 |
| 20260509191242 | 53 | 89 | 0.0 | 0.0 | 0.00 | 0.00 | 0.00 | 74 | 1018.3 |
| 20260509191026 | 53 | 89 | 0.0 | 0.0 | 0.00 | 0.00 | 0.00 | 73 | 1018.3 |
| 20260509190241 | 53 | 89 | 0.0 | 0.0 | 0.00 | 0.00 | 0.00 | 73 | 1018.3 |
| 20260509185744 | 54 | 89 | 0.0 | 1.0 | 0.00 | 0.00 | 0.00 | 72 | 1018.3 |
| 20260509185241 | 54 | 89 | 0.0 | 2.0 | 0.00 | 0.00 | 0.00 | 72 | 1018.2 |
| 20260509184742 | 55 | 89 | 1.0 | 2.0 | 0.00 | 0.00 | 0.00 | 72 | 1018.2 |
| 20260509184524 | 55 | 92 | 1.0 | 2.0 | 0.00 | 0.00 | 0.00 | 71 | 1018.2 |
| 20260509184029 | 55 | 92 | 1.0 | 2.0 | 0.00 | 0.00 | 0.00 | 71 | 1018.2 |
| 20260509183240 | 56 | 87 | 1.0 | 3.0 | 0.00 | 0.00 | 0.00 | 70 | 1018.1 |
| 20260509182743 | 56 | 88 | 2.0 | 3.0 | 0.00 | 0.00 | 0.00 | 70 | 1018.1 |
| 20260509182240 | 56 | 88 | 1.0 | 4.0 | 0.00 | 0.00 | 0.00 | 70 | 1018.1 |
| 20260509181741 | 57 | 87 | 3.0 | 4.0 | 0.00 | 0.00 | 0.00 | 69 | 1018.1 |
| 20260509181241 | 57 | 87 | 2.0 | 3.0 | 0.00 | 0.00 | 0.00 | 69 | 1018.2 |
| 20260509180741 | 57 | 87 | 2.0 | 3.0 | 0.00 | 0.00 | 0.00 | 69 | 1018.3 |
| 20260509180241 | 58 | 88 | 2.0 | 3.0 | 0.00 | 0.00 | 0.00 | 69 | 1018.4 |
| 20260509175742 | 58 | 87 | 1.0 | 3.0 | 0.00 | 0.00 | 0.00 | 68 | 1018.3 |
| 20260509175240 | 58 | 87 | 1.0 | 3.0 | 0.00 | 0.00 | 0.00 | 68 | 1018.3 |
| 20260509174743 | 58 | 87 | 1.0 | 2.0 | 0.00 | 0.00 | 0.00 | 67 | 1018.4 |
| 20260509174241 | 58 | 89 | 1.0 | 2.0 | 0.00 | 0.00 | 0.00 | 67 | 1018.3 |
| 20260509174016 | 58 | 88 | 1.0 | 2.0 | 0.00 | 0.00 | 0.00 | 66 | 1018.3 |
| 20260509173239 | 59 | 88 | 1.0 | 2.0 | 0.00 | 0.00 | 0.00 | 66 | 1018.3 |
| 20260509172821 | 59 | 88 | 1.0 | 3.0 | 0.00 | 0.00 | 0.00 | 65 | 1018.4 |
| 20260509172803 | 59 | 88 | 1.0 | 2.0 | 0.00 | 0.00 | 0.00 | 65 | 1018.3 |
| 20260509171740 | 59 | 88 | 1.0 | 3.0 | 0.00 | 0.00 | 0.00 | 64 | 1018.3 |
| 20260509171240 | 59 | 88 | 2.0 | 4.0 | 0.00 | 0.00 | 0.00 | 64 | 1018.3 |
| 20260509170740 | 59 | 87 | 3.0 | 4.0 | 0.00 | 0.00 | 0.00 | 64 | 1018.4 |
| 20260509170239 | 59 | 87 | 2.0 | 4.0 | 0.00 | 0.00 | 0.00 | 63 | 1018.4 |
| 20260509165741 | 59 | 87 | 2.0 | 4.0 | 0.00 | 0.00 | 0.00 | 62 | 1018.4 |
| 20260509165238 | 59 | 87 | 3.0 | 4.0 | 0.00 | 0.00 | 0.00 | 62 | 1018.4 |
| 20260509164740 | 59 | 87 | 3.0 | 4.0 | 0.00 | 0.00 | 0.00 | 62 | 1018.4 |
| 20260509164240 | 59 | 85 | 1.0 | 5.0 | 0.00 | 0.00 | 0.00 | 62 | 1018.4 |
| 20260509163744 | 60 | 85 | 3.0 | 5.0 | 0.00 | 0.00 | 0.00 | 61 | 1018.4 |
| 20260509163238 | 60 | 85 | 3.0 | 5.0 | 0.00 | 0.00 | 0.00 | 61 | 1018.4 |
| 20260509163029 | 60 | 88 | 2.0 | 5.0 | 0.00 | 0.00 | 0.00 | 62 | 1018.5 |
| 20260509162238 | 60 | 87 | 3.0 | 5.0 | 0.00 | 0.00 | 0.00 | 62 | 1018.5 |
| 20260509162108 | 60 | 101 | 2.0 | 4.0 | 0.00 | 0.00 | 0.00 | 62 | 1018.7 |
| 20260509161758 | 60 | 104 | 3.0 | 5.0 | 0.00 | 0.00 | 0.00 | 62 | 1018.5 |
| 20260509160740 | 60 | 99 | 1.0 | 5.0 | 0.00 | 0.00 | 0.00 | 61 | 1018.6 |
| 20260509160239 | 60 | 98 | 4.0 | 5.0 | 0.00 | 0.00 | 0.00 | 61 | 1018.7 |
| 20260509155743 | 60 | 99 | 3.0 | 5.0 | 0.00 | 0.00 | 0.00 | 61 | 1018.7 |
| 20260509155520 | 60 | 113 | 2.0 | 5.0 | 0.00 | 0.00 | 0.00 | 62 | 1018.7 |
| 20260509154740 | 60 | 126 | 4.0 | 5.0 | 0.00 | 0.00 | 0.00 | 61 | 1018.7 |
| 20260509154242 | 60 | 80 | 4.0 | 6.0 | 0.00 | 0.00 | 0.00 | 61 | 1018.7 |
| 20260509153737 | 60 | 91 | 3.0 | 9.0 | 0.00 | 0.00 | 0.00 | 61 | 1018.7 |
| 20260509153238 | 60 | 85 | 6.0 | 9.0 | 0.00 | 0.00 | 0.00 | 62 | 1018.8 |
| 20260509152739 | 60 | 58 | 2.0 | 5.0 | 0.00 | 0.00 | 0.00 | 62 | 1018.8 |
| 20260509152518 | 60 | 54 | 3.0 | 5.0 | 0.00 | 0.00 | 0.00 | 62 | 1018.8 |
| 20260509151736 | 60 | 57 | 3.0 | 7.0 | 0.00 | 0.00 | 0.00 | 63 | 1018.7 |
| 20260509151241 | 60 | 37 | 4.0 | 7.0 | 0.00 | 0.00 | 0.00 | 63 | 1018.8 |
| 20260509150737 | 60 | 63 | 3.0 | 5.0 | 0.00 | 0.00 | 0.00 | 62 | 1018.8 |
| 20260509150235 | 60 | 74 | 2.0 | 6.0 | 0.00 | 0.00 | 0.00 | 61 | 1018.8 |
| 20260509145740 | 60 | 68 | 4.0 | 6.0 | 0.00 | 0.00 | 0.00 | 62 | 1018.8 |
| 20260509145235 | 60 | 84 | 3.0 | 5.0 | 0.00 | 0.00 | 0.00 | 62 | 1018.8 |
| 20260509145015 | 60 | 77 | 4.0 | 6.0 | 0.00 | 0.00 | 0.00 | 62 | 1018.9 |
| 20260509144239 | 60 | 27 | 5.0 | 7.0 | 0.00 | 0.00 | 0.00 | 61 | 1018.9 |
| 20260509144015 | 60 | 49 | 5.0 | 9.0 | 0.00 | 0.00 | 0.00 | 61 | 1018.8 |
| 20260509143236 | 60 | 43 | 3.0 | 9.0 | 0.00 | 0.00 | 0.00 | 61 | 1018.9 |
| 20260509142737 | 60 | 40 | 4.0 | 6.0 | 0.00 | 0.00 | 0.00 | 61 | 1018.9 |
| 20260509142236 | 60 | 70 | 2.0 | 4.0 | 0.00 | 0.00 | 0.00 | 58 | 1019.0 |
| 20260509141736 | 61 | 73 | 3.0 | 6.0 | 0.00 | 0.00 | 0.00 | 58 | 1018.8 |
| 20260509141235 | 61 | 61 | 2.0 | 6.0 | 0.00 | 0.00 | 0.00 | 59 | 1018.9 |
| 20260509141015 | 61 | 34 | 5.0 | 6.0 | 0.00 | 0.00 | 0.00 | 60 | 1019.0 |
| 20260509140233 | 61 | 126 | 2.0 | 3.0 | 0.00 | 0.00 | 0.00 | 60 | 1019.0 |
| 20260509135736 | 61 | 129 | 1.0 | 5.0 | 0.00 | 0.00 | 0.00 | 60 | 1018.9 |
| 20260509135237 | 61 | 135 | 1.0 | 5.0 | 0.00 | 0.00 | 0.00 | 60 | 1018.9 |
| 20260509134733 | 61 | 135 | 2.0 | 5.0 | 0.00 | 0.00 | 0.00 | 58 | 1019.1 |
| 20260509134234 | 61 | 133 | 2.0 | 5.0 | 0.00 | 0.00 | 0.00 | 58 | 1019.1 |
| 20260509133804 | 62 | 125 | 4.0 | 9.0 | 0.00 | 0.00 | 0.00 | 58 | 1019.2 |
| 20260509133755 | 61 | 116 | 2.0 | 5.0 | 0.00 | 0.00 | 0.00 | 57 | 1019.1 |
| 20260509132737 | 62 | 94 | 5.0 | 9.0 | 0.00 | 0.00 | 0.00 | 58 | 1019.2 |
| 20260509132258 | 62 | 23 | 3.0 | 5.0 | 0.00 | 0.00 | 0.00 | 58 | 1019.2 |
| 20260509132254 | 62 | 43 | 2.0 | 4.0 | 0.00 | 0.00 | 0.00 | 58 | 1019.2 |
| 20260509131233 | 62 | 23 | 2.0 | 5.0 | 0.00 | 0.00 | 0.00 | 57 | 1019.2 |
| 20260509130735 | 62 | 16 | 4.0 | 5.0 | 0.00 | 0.00 | 0.00 | 58 | 1019.2 |
| 20260509130233 | 62 | 25 | 2.0 | 3.0 | 0.00 | 0.00 | 0.00 | 59 | 1019.3 |
| 20260509125734 | 62 | 341 | 3.0 | 3.0 | 0.00 | 0.00 | 0.00 | 59 | 1019.4 |
| 20260509125232 | 62 | 344 | 1.0 | 4.0 | 0.00 | 0.00 | 0.00 | 58 | 1019.4 |
| 20260509124734 | 62 | 352 | 0.0 | 6.0 | 0.00 | 0.00 | 0.00 | 57 | 1019.4 |
| 20260509124233 | 62 | 3 | 4.0 | 6.0 | 0.00 | 0.00 | 0.00 | 56 | 1019.5 |
| 20260509123733 | 63 | 1 | 3.0 | 6.0 | 0.00 | 0.00 | 0.00 | 56 | 1019.5 |
| 20260509123518 | 63 | 315 | 2.0 | 7.0 | 0.00 | 0.00 | 0.00 | 57 | 1019.6 |
| 20260509122733 | 63 | 304 | 4.0 | 7.0 | 0.00 | 0.00 | 0.00 | 57 | 1019.5 |
| 20260509122232 | 64 | 306 | 3.0 | 10.0 | 0.00 | 0.00 | 0.00 | 56 | 1019.4 |
| 20260509121736 | 63 | 22 | 5.0 | 10.0 | 0.00 | 0.00 | 0.00 | 57 | 1019.4 |
| 20260509121516 | 62 | 77 | 2.0 | 7.0 | 0.00 | 0.00 | 0.00 | 57 | 1019.6 |
| 20260509120735 | 62 | 51 | 3.0 | 5.0 | 0.00 | 0.00 | 0.00 | 59 | 1019.6 |
| 20260509120232 | 62 | 19 | 3.0 | 5.0 | 0.00 | 0.00 | 0.00 | 59 | 1019.6 |
| 20260509115733 | 62 | 57 | 4.0 | 7.0 | 0.00 | 0.00 | 0.00 | 59 | 1019.6 |
| 20260509115233 | 62 | 102 | 6.0 | 7.0 | 0.00 | 0.00 | 0.00 | 59 | 1019.6 |
| 20260509114736 | 62 | 75 | 3.0 | 7.0 | 0.00 | 0.00 | 0.00 | 61 | 1019.7 |
| 20260509114233 | 61 | 58 | 3.0 | 6.0 | 0.00 | 0.00 | 0.00 | 60 | 1019.7 |
| 20260509114019 | 61 | 23 | 1.0 | 11.0 | 0.00 | 0.00 | 0.00 | 61 | 1019.8 |